Weather History for Big Rapids, MI

Change the Weather History Date:

Wednesday, September 4, 2013

  Actual Average Record
Temperature  
Mean Temperature 66 °F -  
Max Temperature 81 °F 76 °F 89 °F (1999)
Min Temperature 51 °F 50 °F 35 °F (1974)
Cooling Degree Days 1    
Growing Degree Days 16 (Base 50)    
Moisture  
Dew Point 58 °F    
Average Humidity 78    
Maximum Humidity 100    
Minimum Humidity 51    
Precipitation  
Precipitation 0.00 in - - ()
Sea Level Pressure  
Sea Level Pressure 30.05 in    
Wind  
Wind Speed 6 mph (West)    
Max Wind Speed 16 mph    
Max Gust Speed 24 mph    
Visibility 10 miles    
Events      
Averages and records for this station are not official NWS values.
T = Trace of Precipitation, MM = Missing Value Source: NWS Daily Summary

Daily Weather History Graph

Daily Weather History Graph

Search for Another Location

Airport:

Trip Planner

Search our weather history database for the weather conditions in past years. The results will help you decide how hot, cold, wet, or windy it might be!

Date:

Astronomy

Sep. 04, 2013 Rise Set
Actual Time 7:09 AM EDT 8:11 PM EDT
Civil Twilight 6:39 AM EDT 8:41 PM EDT
Nautical Twilight 6:04 AM EDT 9:16 PM EDT
Astronomical Twilight 5:27 AM EDT 9:52 PM EDT
Moon 6:20 AM EDT (9/4) 7:29 PM EDT (9/4)
Length of Visible Light 14h 01m
Length of Day
13h 02m
Waning Crescent, 1% of the Moon is Illuminated
Sep 4
Waning Crescent
Sep 5
New
Sep 12
First Quarter
Sep 19
Full
Sep 26
Last Quarter

Hourly Weather History & Observations

Time (EDT) Temp. Heat Index Dew Point Humidity Pressure Visibility Wind Dir Wind Speed Gust Speed Precip Events Conditions
12:15 AM 52.9 °F - 52.0 °F 97% 30.02 in 10.0 mi SSE 4.6 mph - N/A   Clear
12:35 AM 53.1 °F - 52.5 °F 98% 30.01 in 10.0 mi Calm Calm - N/A   Clear
12:54 AM 53.1 °F - 52.5 °F 98% 30.01 in 10.0 mi South 5.8 mph - N/A   Clear
1:15 AM 51.3 °F - 51.3 °F 100% 30.01 in 10.0 mi South 5.8 mph - N/A   Clear
1:35 AM 52.3 °F - 52.3 °F 100% 30.01 in 10.0 mi SE 3.5 mph - N/A   Clear
1:54 AM 51.3 °F - 51.3 °F 100% 30.00 in 10.0 mi SE 3.5 mph - N/A   Clear
2:15 AM 52.0 °F - 52.0 °F 100% 30.00 in 10.0 mi SW 4.6 mph - N/A   Clear
2:35 AM 52.2 °F - 52.2 °F 100% 30.00 in 10.0 mi South 3.5 mph - N/A   Clear
2:55 AM 56.1 °F - 56.1 °F 100% 30.00 in 10.0 mi WSW 4.6 mph - N/A   Clear
3:15 AM 59.0 °F - 59.0 °F 100% 30.00 in 10.0 mi WSW 3.5 mph - N/A   Clear
3:35 AM 59.0 °F - 58.8 °F 99% 30.00 in 10.0 mi WSW 4.6 mph - N/A   Clear
3:55 AM 58.1 °F - 57.6 °F 98% 30.00 in 10.0 mi WSW 4.6 mph - N/A   Clear
4:15 AM 58.6 °F - 58.6 °F 100% 30.00 in 10.0 mi WSW 3.5 mph - N/A   Clear
4:34 AM 59.5 °F - 59.0 °F 98% 30.01 in 10.0 mi WSW 4.6 mph - N/A   Clear
4:55 AM 59.4 °F - 58.3 °F 96% 30.01 in 10.0 mi WSW 4.6 mph - N/A   Clear
5:15 AM 58.6 °F - 58.1 °F 98% 30.02 in 10.0 mi Calm Calm - N/A   Clear
5:34 AM 59.0 °F - 58.3 °F 97% 30.02 in 10.0 mi WSW 6.9 mph - N/A   Clear
5:55 AM 59.2 °F - 58.3 °F 97% 30.02 in 10.0 mi West 4.6 mph - N/A   Clear
6:15 AM 59.4 °F - 58.5 °F 97% 30.03 in 10.0 mi West 5.8 mph - N/A   Clear
6:34 AM 58.6 °F - 58.1 °F 98% 30.02 in 10.0 mi West 3.5 mph - N/A   Clear
6:55 AM 59.0 °F - 57.9 °F 96% 30.03 in 10.0 mi WSW 4.6 mph - N/A   Clear
7:15 AM 58.5 °F - 58.1 °F 99% 30.03 in 10.0 mi Calm Calm - N/A   Clear
7:34 AM 57.9 °F - 57.2 °F 97% 30.04 in 10.0 mi Calm Calm - N/A   Clear
7:55 AM 59.5 °F - 58.6 °F 97% 30.04 in 10.0 mi WSW 4.6 mph - N/A   Clear
8:15 AM 61.3 °F - 59.2 °F 93% 30.03 in 10.0 mi WSW 9.2 mph - N/A   Clear
8:34 AM 62.6 °F - 59.9 °F 91% 30.04 in 10.0 mi West 12.7 mph - N/A   Clear
8:55 AM 64.4 °F - 60.8 °F 88% 30.05 in 10.0 mi WSW 6.9 mph - N/A   Clear
9:15 AM 66.6 °F - 60.8 °F 82% 30.05 in 10.0 mi West 8.1 mph - N/A   Clear
9:34 AM 67.6 °F - 60.8 °F 79% 30.05 in 10.0 mi West 10.4 mph 17.3 mph N/A   Clear
9:55 AM 68.5 °F - 58.3 °F 70% 30.06 in 10.0 mi West 8.1 mph 17.3 mph N/A   Clear
10:15 AM 69.6 °F - 58.3 °F 67% 30.05 in 10.0 mi WNW 6.9 mph 18.4 mph N/A   Clear
10:35 AM 70.9 °F - 59.0 °F 66% 30.05 in 10.0 mi WNW 6.9 mph 20.7 mph N/A   Clear
10:54 AM 71.1 °F - 59.0 °F 66% 30.06 in 10.0 mi WNW 6.9 mph 17.3 mph N/A   Clear
11:15 AM 72.5 °F - 59.2 °F 63% 30.06 in 10.0 mi West 8.1 mph 18.4 mph N/A   Clear
11:35 AM 73.8 °F - 59.2 °F 60% 30.05 in 10.0 mi West 6.9 mph - N/A   Clear
11:55 AM 74.7 °F - 59.9 °F 60% 30.05 in 10.0 mi West 9.2 mph - N/A   Clear
12:14 PM 76.1 °F - 60.6 °F 59% 30.05 in 10.0 mi WSW 8.1 mph - N/A   Clear
12:35 PM 76.8 °F - 60.3 °F 56% 30.05 in 10.0 mi West 8.1 mph - N/A   Clear
12:55 PM 77.5 °F - 60.8 °F 56% 30.05 in 10.0 mi West 10.4 mph - N/A   Clear
1:14 PM 78.3 °F - 61.0 °F 55% 30.05 in 10.0 mi West 8.1 mph 18.4 mph N/A   Clear
1:35 PM 78.8 °F - 61.0 °F 54% 30.05 in 10.0 mi West 9.2 mph 19.6 mph N/A   Clear
1:55 PM 79.5 °F - 61.2 °F 53% 30.05 in 10.0 mi WNW 8.1 mph 24.2 mph N/A   Clear
2:14 PM 79.9 °F - 61.5 °F 53% 30.05 in 10.0 mi West 11.5 mph 17.3 mph N/A   Scattered Clouds
2:35 PM 80.4 °F 81.5 °F 61.9 °F 53% 30.04 in 10.0 mi West 13.8 mph 20.7 mph N/A   Scattered Clouds
2:55 PM 81.1 °F 82.0 °F 61.5 °F 51% 30.04 in 10.0 mi West 15.0 mph 24.2 mph N/A   Scattered Clouds
3:14 PM 81.3 °F 82.2 °F 61.5 °F 51% 30.04 in 10.0 mi West 12.7 mph 23.0 mph N/A   Mostly Cloudy
3:35 PM 78.8 °F - 61.7 °F 56% 30.04 in 10.0 mi WNW 11.5 mph 19.6 mph N/A   Overcast
3:55 PM 78.4 °F - 61.7 °F 56% 30.04 in 10.0 mi NW 13.8 mph 18.4 mph N/A   Mostly Cloudy
4:14 PM 78.6 °F - 61.9 °F 56% 30.04 in 10.0 mi NW 13.8 mph 19.6 mph N/A   Scattered Clouds
4:35 PM 77.5 °F - 61.3 °F 57% 30.04 in 10.0 mi NW 16.1 mph 19.6 mph N/A   Mostly Cloudy
4:54 PM 76.1 °F - 61.7 °F 61% 30.04 in 10.0 mi NW 10.4 mph - N/A   Overcast
5:15 PM 74.8 °F - 61.7 °F 64% 30.05 in 10.0 mi NNW 9.2 mph - N/A   Overcast
5:35 PM 75.0 °F - 60.8 °F 61% 30.05 in 10.0 mi NNW 13.8 mph 21.9 mph N/A   Mostly Cloudy
5:54 PM 73.6 °F - 60.4 °F 63% 30.06 in 10.0 mi NW 12.7 mph 17.3 mph N/A   Overcast
6:15 PM 72.5 °F - 59.7 °F 64% 30.06 in 10.0 mi NW 9.2 mph 17.3 mph N/A   Mostly Cloudy
6:35 PM 72.0 °F - 60.1 °F 66% 30.07 in 10.0 mi NW 8.1 mph 18.4 mph N/A   Mostly Cloudy
6:54 PM 70.7 °F - 59.9 °F 69% 30.07 in 10.0 mi NNW 12.7 mph 18.4 mph N/A   Overcast
7:15 PM 70.2 °F - 60.1 °F 70% 30.08 in 10.0 mi NNW 10.4 mph - N/A   Overcast
7:35 PM 69.1 °F - 59.2 °F 71% 30.08 in 10.0 mi NNW 9.2 mph - N/A   Overcast
7:54 PM 68.0 °F - 58.6 °F 72% 30.08 in 10.0 mi NNW 5.8 mph - N/A   Scattered Clouds
8:15 PM 66.7 °F - 58.5 °F 75% 30.08 in 10.0 mi NNW 5.8 mph - N/A   Clear
8:35 PM 65.5 °F - 58.3 °F 77% 30.08 in 10.0 mi NNW 6.9 mph - N/A   Clear
8:55 PM 64.6 °F - 58.1 °F 79% 30.09 in 10.0 mi NW 3.5 mph - N/A   Clear
9:15 PM 63.5 °F - 57.9 °F 82% 30.10 in 10.0 mi Calm Calm - N/A   Clear
9:34 PM 62.8 °F - 57.6 °F 83% 30.11 in 10.0 mi NNW 3.5 mph - N/A   Clear
9:55 PM 61.9 °F - 56.8 °F 84% 30.12 in 10.0 mi NW 3.5 mph - N/A   Clear
10:15 PM 60.6 °F - 57.7 °F 90% 30.12 in 10.0 mi North 4.6 mph - N/A   Clear
10:34 PM 60.6 °F - 55.6 °F 83% 30.13 in 10.0 mi Calm Calm - N/A   Clear
10:55 PM 59.4 °F - 53.8 °F 82% 30.13 in 10.0 mi North 3.5 mph - N/A   Clear
11:15 PM 58.3 °F - 52.0 °F 80% 30.14 in 10.0 mi Calm Calm - N/A   Clear
11:34 PM 57.7 °F - 51.1 °F 78% 30.14 in 10.0 mi Calm Calm - N/A   Clear
11:55 PM 56.5 °F - 49.5 °F 77% 30.15 in 10.0 mi Calm Calm - N/A   Clear